Preview of NWS' New Version of Forecast
This preview is not operational and should not be used for support decisions.

Regional Weather Roundup (RWR)

Issued by National Weather Service (NWS)

                            
000
ASUS43 KLSX 160957
RWRMO 

WEATHER SUMMARY FOR MISSOURI
NATIONAL WEATHER SERVICE SPRINGFIELD MO
500 AM CDT MON SEP 16 2019

NOTE: "FAIR" INDICATES FEW OR NO CLOUDS BELOW 12,000 FEET WITH NO
       SIGNIFICANT WEATHER AND/OR OBSTRUCTIONS TO VISIBILITY.
       CURRENT SKY AND/OR WEATHER CONDITIONS ARE NOT AVAILABLE FOR
       CHILLICOTHE AND FARMINGTON.

MOZ001>031-035>038-043-044-053-054-161100-
...NORTHERN AND WESTERN MISSOURI...
  
CITY           SKY/WX    TMP DP  RH WIND       PRES   REMARKS
KANSAS CTY INT CLEAR     71  69  93 S7        30.06S                  
LEE'S SUMMIT   CLEAR     74  68  81 SW7       30.07S                  
ST JOSEPH      CLEAR     70  67  90 CALM      30.04S                  
CHILLICOTHE      N/A     70  69  97 CALM      30.07R                  
     
$$
MOZ066>068-077>081-088>096-101>105-161100-
...SOUTHWEST MISSOURI...
  
CITY           SKY/WX    TMP DP  RH WIND       PRES   REMARKS
SPRINGFIELD    CLEAR     69  65  86 S6        30.11S                  
JOPLIN         CLEAR     72  67  84 SE3       30.10S                  
               
$$
MOZ032>034-039>042-045>050-055>058-069>072-161100-
...CENTRAL MISSOURI...  
  
CITY           SKY/WX    TMP DP  RH WIND       PRES   REMARKS
COLUMBIA       NOT AVBL                                               
JEFFERSON CITY CLEAR     71  68  90 E6        30.08R                  
ROLLA          CLEAR     71  64  78 SW8       30.11S                  
SEDALIA        CLEAR     71  70  96 SW8       30.09R                  
WARRENSBURG    CLEAR     70  68  94 S5        30.07S                  
               
$$
MOZ051-052-059>065-161100-
...EAST CENTRAL MISSOURI...
  
CITY           SKY/WX    TMP DP  RH WIND       PRES   REMARKS
ST LOUIS INTL  CLEAR     77  66  68 SW7       30.07S                  
                   
$$
MOZ072>076-082>087-097>100-106>115-161100-
...SOUTH CENTRAL AND SOUTHEAST MISSOURI...
  
CITY           SKY/WX    TMP DP  RH WIND       PRES   REMARKS
CAPE GIRARDEAU FAIR      65  63  93 CALM      30.08R FOG              
POPLAR BLUFF   FAIR      68  66  93 CALM      30.08S                  
WEST PLAINS    CLEAR     69  66  90 CALM      30.14R FOG              
                                       
$$